星链-4357 (STARLINK-4357 )

导读

STARLINK-4357是美国SpaceX星链互联网卫星星座的一员,于2022年8月31日发射入轨,属于星链低轨卫星组网的组成部分。它运行在近地轨道,为全球提供低延迟宽带互联网覆盖服务,支撑星链完成全球组网布局,服务地面通信、海事等多元互联网接入需求。

Basic Information
目录编号:
53662
目录名称:
STARLINK-4357
国际标识:
2022-105Q
轨道中心:
EARTH
卫星名称:
星链-4357
卫星全名:
星链-4357 (STARLINK-4357 )
卫星状态:
在轨 (已飞行1465 天)
发射日期:
2022-08-31 UTC
国别 :
美国 (US)
星等 :
--
Orbit Information
数据来源 国际轨道数据
星历时间: 2026-09-02T13:34:42+0800
1天前
查看轨道信息
半长轴: 6833.242km
偏心率: 0.0001896
轨道倾角: 97.517°
近地点辐角 89.281°
升交点赤经 132.548°
平近点角 270.865°
近地点: 453.809km
远地点: 456.401km
周期: 93.691分钟
每日圈数: 15.369601
Detailed Information
固有亮度:
5
最大亮度:
2.5
卫星平台:
Starlink v1.5
覆盖范围:
全球
运营商:
太空探索技术公司
运营商所在国:
美国
制造商(研发单位):
太空探索技术公司
制造商所在国:
美国
使用方式:
暂无
Satellite Introduction
星链(Starlink)计划是由太空探索技术公司(SpaceX)提出的一个巨型低轨卫星互联网星座项目,计划在2019年至2024年间在太空搭建由约1.2万颗卫星组成的“星链”网络,其中1584颗将部署在地球上空550千米处的近地轨道,并从2020年开始工作。该卫星仍在工作。
2D Orbit Map
3D Orbit Map
Orbit Altitude Analysis Chart
Orbit Inclination Analysis Chart
Orbit Comprehensive Analysis Chart
View Comprehensive Chart
Conjunction Data List
Event ID Objects TCA Miss Dist (km) Collision Risk Probability Collision Risk Index (CRI) Action
CDM_260904-130805-246405-366222
2026-09-04T
13:08:10+0000
2.703 km
极远距离
1.535441E-6 低风险 0.39
CDM_260904-135505-246405-366221
2026-09-04T
13:55:03+0000
2.746 km
极远距离
1.500198E-6 低风险 0.39